Tracking 19794 objects as of 21-Jul-2019
HD Live streaming from Space Station
objects crossing your sky now

COSMOS 1275 DEB

Track COSMOS 1275 DEB now!
10-day predictions


NORAD ID: 12749
Int'l Code: 1981-053CS
Perigee: 944.4 km
Apogee: 1,038.2 km
Inclination: 82.8 °
Period: 104.8 minutes
Semi major axis: 7362 km
RCS: 0.0541 m2 (small)
Launch date: June 4, 1981
Source: Commonwealth of Independent States (former USSR) (CIS)
Launch site: PLESETSK MISSILE AND SPACE COMPLEX (PKMTR)

Note: This is SATELLITE DEBRIS
aabbcc
Your satellite tracking list
Your tracking list is empty




NASA's NSSDC Master Catalog

Two Line Element Set (TLE):
1 12749U 81053CS  19201.96016013 +.00000115 +00000-0 +10532-3 0  9990
2 12749 082.8110 179.3239 0063655 000.3862 052.0833 13.74301398899302
Source of the keplerian elements: AFSPC